This is the latest recevied weather packets stored in our database for station/object N9CQS-13. If no packets are shown the sender has not sent any weather packets the latest 10 day(s).
| Time | Temp. | Humidity | Pressure | Rain* | Wind** | Luminosity | Snow |
|---|---|---|---|---|---|---|---|
| 1777479692 | 17.22° C | 58% | 1014.4 hPa | 0 mm | - | - | - |
| 1777479092 | 17.22° C | 57% | 1014.5 hPa | 0 mm | - | - | - |
| 1777478492 | 16.67° C | 58% | 1014.5 hPa | 0 mm | - | - | - |
| 1777477892 | 16.67° C | 59% | 1014.4 hPa | 0 mm | - | - | - |
| 1777477292 | 16.11° C | 60% | 1014.3 hPa | 0 mm | - | - | - |
| 1777476692 | 16.11° C | 62% | 1014.3 hPa | 0 mm | - | - | - |
| 1777476092 | 15° C | 61% | 1014.3 hPa | 0 mm | - | - | - |
| 1777475492 | 15° C | 60% | 1014.3 hPa | 0 mm | - | - | - |
| 1777474892 | 14.44° C | 61% | 1014.4 hPa | 0 mm | - | - | - |
| 1777474292 | 13.89° C | 63% | 1014.3 hPa | 0 mm | - | - | - |
| 1777473692 | 13.89° C | 63% | 1014.3 hPa | 0 mm | - | - | - |
| 1777473092 | 13.33° C | 67% | 1014.3 hPa | 0 mm | - | - | - |
| 1777472493 | 13.33° C | 68% | 1014.3 hPa | 0 mm | - | - | - |
| 1777471892 | 13.33° C | 68% | 1014.3 hPa | 0 mm | - | - | - |
| 1777471292 | 12.78° C | 68% | 1014.3 hPa | 0 mm | - | - | - |
| 1777470692 | 12.78° C | 70% | 1014.2 hPa | 0 mm | - | - | - |
| 1777470091 | 12.22° C | 71% | 1014.3 hPa | 0 mm | - | - | - |
| 1777469491 | 12.22° C | 73% | 1014.3 hPa | 0 mm | - | - | - |
| 1777468891 | 11.67° C | 74% | 1014.3 hPa | 0 mm | - | - | - |
| 1777468292 | 11.67° C | 75% | 1014.3 hPa | 0 mm | - | - | - |
| 1777467691 | 11.67° C | 76% | 1014.3 hPa | 0 mm | - | - | - |
| 1777467092 | 11.11° C | 78% | 1014.2 hPa | 0 mm | - | - | - |
| 1777466492 | 11.11° C | 81% | 1014.3 hPa | 0 mm | - | - | - |
| 1777465891 | 11.11° C | 84% | 1014.1 hPa | 0 mm | - | - | - |
| 1777465291 | 10.56° C | 86% | 1014.1 hPa | 0 mm | - | - | - |
* Rain latest hour (hover to see other rain measurements)
** Current wind speed in m/s (hover to see current wind gust speed)